<?xml version="1.0" encoding="UTF-8" standalone="no" ?>
<gpx xmlns="http://www.topografix.com/GPX/1/1" xmlns:xsi="http://www.w3.org/2001/XMLSchema-instance" xsi:schemaLocation="http://www.topografix.com/GPX/1/1 http://www.topografix.com/GPX/1/1/gpx.xsd" version="1.1" creator="VisuGPX - https://www.visugpx.com">
  <metadata>
    <name>12688131-Jarnioux var 1 PAT</name>
  </metadata>
  <trk>
    <name><![CDATA[12688131-Jarnioux var 1 PAT]]></name>
    <trkseg>
      <trkpt lat="45.96409" lon="4.63086">
        <ele>293</ele>
        <time>2021-03-15T12:35:52Z</time>
      </trkpt>
      <trkpt lat="45.96429" lon="4.6318">
        <ele>297</ele>
        <time>2021-03-15T12:37:23Z</time>
      </trkpt>
      <trkpt lat="45.96444" lon="4.63229">
        <ele>303</ele>
        <time>2021-03-15T12:38:13Z</time>
      </trkpt>
      <trkpt lat="45.9645" lon="4.63259">
        <ele>305</ele>
        <time>2021-03-15T12:38:42Z</time>
      </trkpt>
      <trkpt lat="45.96452" lon="4.63314">
        <ele>308</ele>
        <time>2021-03-15T12:39:33Z</time>
      </trkpt>
      <trkpt lat="45.96454" lon="4.63335">
        <ele>309</ele>
        <time>2021-03-15T12:39:53Z</time>
      </trkpt>
      <trkpt lat="45.96457" lon="4.63343">
        <ele>310</ele>
        <time>2021-03-15T12:40:01Z</time>
      </trkpt>
      <trkpt lat="45.96461" lon="4.63319">
        <ele>310</ele>
        <time>2021-03-15T12:40:24Z</time>
      </trkpt>
      <trkpt lat="45.9648" lon="4.63242">
        <ele>311</ele>
        <time>2021-03-15T12:41:40Z</time>
      </trkpt>
      <trkpt lat="45.96485" lon="4.6321">
        <ele>312</ele>
        <time>2021-03-15T12:42:10Z</time>
      </trkpt>
      <trkpt lat="45.96487" lon="4.63194">
        <ele>312</ele>
        <time>2021-03-15T12:42:25Z</time>
      </trkpt>
      <trkpt lat="45.96487" lon="4.63145">
        <ele>310</ele>
        <time>2021-03-15T12:43:11Z</time>
      </trkpt>
      <trkpt lat="45.9649" lon="4.63103">
        <ele>310</ele>
        <time>2021-03-15T12:43:50Z</time>
      </trkpt>
      <trkpt lat="45.96506" lon="4.63063">
        <ele>312</ele>
        <time>2021-03-15T12:44:33Z</time>
      </trkpt>
      <trkpt lat="45.96523" lon="4.63027">
        <ele>314</ele>
        <time>2021-03-15T12:45:13Z</time>
      </trkpt>
      <trkpt lat="45.96546" lon="4.62991">
        <ele>318</ele>
        <time>2021-03-15T12:45:58Z</time>
      </trkpt>
      <trkpt lat="45.96571" lon="4.62914">
        <ele>319</ele>
        <time>2021-03-15T12:47:17Z</time>
      </trkpt>
      <trkpt lat="45.96577" lon="4.62894">
        <ele>319</ele>
        <time>2021-03-15T12:47:37Z</time>
      </trkpt>
      <trkpt lat="45.96586" lon="4.6284">
        <ele>320</ele>
        <time>2021-03-15T12:48:29Z</time>
      </trkpt>
      <trkpt lat="45.96608" lon="4.62718">
        <ele>322</ele>
        <time>2021-03-15T12:50:26Z</time>
      </trkpt>
      <trkpt lat="45.96631" lon="4.62609">
        <ele>323</ele>
        <time>2021-03-15T12:52:11Z</time>
      </trkpt>
      <trkpt lat="45.96653" lon="4.62544">
        <ele>325</ele>
        <time>2021-03-15T12:53:18Z</time>
      </trkpt>
      <trkpt lat="45.9667" lon="4.62495">
        <ele>325</ele>
        <time>2021-03-15T12:54:09Z</time>
      </trkpt>
      <trkpt lat="45.96676" lon="4.62482">
        <ele>326</ele>
        <time>2021-03-15T12:54:24Z</time>
      </trkpt>
      <trkpt lat="45.96696" lon="4.62459">
        <ele>330</ele>
        <time>2021-03-15T12:54:58Z</time>
      </trkpt>
      <trkpt lat="45.96704" lon="4.62444">
        <ele>332</ele>
        <time>2021-03-15T12:55:15Z</time>
      </trkpt>
      <trkpt lat="45.9671" lon="4.62413">
        <ele>333</ele>
        <time>2021-03-15T12:55:45Z</time>
      </trkpt>
      <trkpt lat="45.96723" lon="4.62326">
        <ele>334</ele>
        <time>2021-03-15T12:57:08Z</time>
      </trkpt>
      <trkpt lat="45.96761" lon="4.62199">
        <ele>336</ele>
        <time>2021-03-15T12:59:16Z</time>
      </trkpt>
      <trkpt lat="45.96781" lon="4.62152">
        <ele>340</ele>
        <time>2021-03-15T13:00:07Z</time>
      </trkpt>
      <trkpt lat="45.96816" lon="4.62084">
        <ele>343</ele>
        <time>2021-03-15T13:01:26Z</time>
      </trkpt>
      <trkpt lat="45.96842" lon="4.62045">
        <ele>346</ele>
        <time>2021-03-15T13:02:16Z</time>
      </trkpt>
      <trkpt lat="45.9686" lon="4.62008">
        <ele>348</ele>
        <time>2021-03-15T13:02:58Z</time>
      </trkpt>
      <trkpt lat="45.96888" lon="4.61936">
        <ele>351</ele>
        <time>2021-03-15T13:04:14Z</time>
      </trkpt>
      <trkpt lat="45.96907" lon="4.61871">
        <ele>351</ele>
        <time>2021-03-15T13:05:20Z</time>
      </trkpt>
      <trkpt lat="45.96939" lon="4.61771">
        <ele>354</ele>
        <time>2021-03-15T13:07:02Z</time>
      </trkpt>
      <trkpt lat="45.96981" lon="4.61638">
        <ele>357</ele>
        <time>2021-03-15T13:09:17Z</time>
      </trkpt>
      <trkpt lat="45.9702" lon="4.61544">
        <ele>360</ele>
        <time>2021-03-15T13:10:59Z</time>
      </trkpt>
      <trkpt lat="45.97037" lon="4.61488">
        <ele>364</ele>
        <time>2021-03-15T13:11:55Z</time>
      </trkpt>
      <trkpt lat="45.97077" lon="4.6133">
        <ele>367</ele>
        <time>2021-03-15T13:14:31Z</time>
      </trkpt>
      <trkpt lat="45.97095" lon="4.6122">
        <ele>367</ele>
        <time>2021-03-15T13:16:16Z</time>
      </trkpt>
      <trkpt lat="45.97102" lon="4.61143">
        <ele>371</ele>
        <time>2021-03-15T13:17:28Z</time>
      </trkpt>
      <trkpt lat="45.97093" lon="4.6111">
        <ele>370</ele>
        <time>2021-03-15T13:18:01Z</time>
      </trkpt>
      <trkpt lat="45.97077" lon="4.61083">
        <ele>369</ele>
        <time>2021-03-15T13:18:34Z</time>
      </trkpt>
      <trkpt lat="45.97061" lon="4.61069">
        <ele>371</ele>
        <time>2021-03-15T13:18:59Z</time>
      </trkpt>
      <trkpt lat="45.97045" lon="4.61062">
        <ele>372</ele>
        <time>2021-03-15T13:19:21Z</time>
      </trkpt>
      <trkpt lat="45.97052" lon="4.61">
        <ele>377</ele>
        <time>2021-03-15T13:20:20Z</time>
      </trkpt>
      <trkpt lat="45.97062" lon="4.60935">
        <ele>381</ele>
        <time>2021-03-15T13:21:21Z</time>
      </trkpt>
      <trkpt lat="45.97074" lon="4.60886">
        <ele>382</ele>
        <time>2021-03-15T13:22:10Z</time>
      </trkpt>
      <trkpt lat="45.97077" lon="4.6088">
        <ele>382</ele>
        <time>2021-03-15T13:22:16Z</time>
      </trkpt>
      <trkpt lat="45.97074" lon="4.60886">
        <ele>382</ele>
        <time>2021-03-15T13:22:23Z</time>
      </trkpt>
      <trkpt lat="45.97122" lon="4.60942">
        <ele>390</ele>
        <time>2021-03-15T13:23:46Z</time>
      </trkpt>
      <trkpt lat="45.97164" lon="4.61015">
        <ele>397</ele>
        <time>2021-03-15T13:25:14Z</time>
      </trkpt>
      <trkpt lat="45.97167" lon="4.61021">
        <ele>398</ele>
        <time>2021-03-15T13:25:20Z</time>
      </trkpt>
      <trkpt lat="45.97172" lon="4.60992">
        <ele>402</ele>
        <time>2021-03-15T13:25:48Z</time>
      </trkpt>
      <trkpt lat="45.97173" lon="4.60965">
        <ele>404</ele>
        <time>2021-03-15T13:26:13Z</time>
      </trkpt>
      <trkpt lat="45.97179" lon="4.6093">
        <ele>409</ele>
        <time>2021-03-15T13:26:47Z</time>
      </trkpt>
      <trkpt lat="45.97187" lon="4.60907">
        <ele>412</ele>
        <time>2021-03-15T13:27:11Z</time>
      </trkpt>
      <trkpt lat="45.97194" lon="4.60873">
        <ele>411</ele>
        <time>2021-03-15T13:27:43Z</time>
      </trkpt>
      <trkpt lat="45.97201" lon="4.60851">
        <ele>411</ele>
        <time>2021-03-15T13:28:06Z</time>
      </trkpt>
      <trkpt lat="45.97213" lon="4.60837">
        <ele>412</ele>
        <time>2021-03-15T13:28:27Z</time>
      </trkpt>
      <trkpt lat="45.97272" lon="4.60774">
        <ele>412</ele>
        <time>2021-03-15T13:30:05Z</time>
      </trkpt>
      <trkpt lat="45.9729" lon="4.60758">
        <ele>411</ele>
        <time>2021-03-15T13:30:33Z</time>
      </trkpt>
      <trkpt lat="45.97343" lon="4.60665">
        <ele>403</ele>
        <time>2021-03-15T13:32:24Z</time>
      </trkpt>
      <trkpt lat="45.97351" lon="4.60655">
        <ele>403</ele>
        <time>2021-03-15T13:32:38Z</time>
      </trkpt>
      <trkpt lat="45.97363" lon="4.60644">
        <ele>403</ele>
        <time>2021-03-15T13:32:57Z</time>
      </trkpt>
      <trkpt lat="45.97424" lon="4.60601">
        <ele>402</ele>
        <time>2021-03-15T13:34:28Z</time>
      </trkpt>
      <trkpt lat="45.97443" lon="4.60622">
        <ele>403</ele>
        <time>2021-03-15T13:35:00Z</time>
      </trkpt>
      <trkpt lat="45.97479" lon="4.60667">
        <ele>403</ele>
        <time>2021-03-15T13:36:04Z</time>
      </trkpt>
      <trkpt lat="45.975" lon="4.60698">
        <ele>400</ele>
        <time>2021-03-15T13:36:44Z</time>
      </trkpt>
      <trkpt lat="45.97541" lon="4.60615">
        <ele>402</ele>
        <time>2021-03-15T13:38:18Z</time>
      </trkpt>
      <trkpt lat="45.97541" lon="4.60601">
        <ele>402</ele>
        <time>2021-03-15T13:38:31Z</time>
      </trkpt>
      <trkpt lat="45.97549" lon="4.60529">
        <ele>406</ele>
        <time>2021-03-15T13:39:39Z</time>
      </trkpt>
      <trkpt lat="45.9755" lon="4.60355">
        <ele>422</ele>
        <time>2021-03-15T13:42:20Z</time>
      </trkpt>
      <trkpt lat="45.97535" lon="4.60267">
        <ele>432</ele>
        <time>2021-03-15T13:43:44Z</time>
      </trkpt>
      <trkpt lat="45.97494" lon="4.6019">
        <ele>446</ele>
        <time>2021-03-15T13:45:14Z</time>
      </trkpt>
      <trkpt lat="45.97486" lon="4.60163">
        <ele>451</ele>
        <time>2021-03-15T13:45:41Z</time>
      </trkpt>
      <trkpt lat="45.9749" lon="4.60145">
        <ele>452</ele>
        <time>2021-03-15T13:45:59Z</time>
      </trkpt>
      <trkpt lat="45.97513" lon="4.601">
        <ele>453</ele>
        <time>2021-03-15T13:46:51Z</time>
      </trkpt>
      <trkpt lat="45.97555" lon="4.59935">
        <ele>462</ele>
        <time>2021-03-15T13:49:34Z</time>
      </trkpt>
      <trkpt lat="45.97564" lon="4.5989">
        <ele>464</ele>
        <time>2021-03-15T13:50:17Z</time>
      </trkpt>
      <trkpt lat="45.97573" lon="4.59803">
        <ele>470</ele>
        <time>2021-03-15T13:51:39Z</time>
      </trkpt>
      <trkpt lat="45.9758" lon="4.59778">
        <ele>470</ele>
        <time>2021-03-15T13:52:04Z</time>
      </trkpt>
      <trkpt lat="45.9761" lon="4.59713">
        <ele>472</ele>
        <time>2021-03-15T13:53:16Z</time>
      </trkpt>
      <trkpt lat="45.97618" lon="4.59685">
        <ele>474</ele>
        <time>2021-03-15T13:53:44Z</time>
      </trkpt>
      <trkpt lat="45.97625" lon="4.59618">
        <ele>482</ele>
        <time>2021-03-15T13:54:47Z</time>
      </trkpt>
      <trkpt lat="45.97652" lon="4.59558">
        <ele>484</ele>
        <time>2021-03-15T13:55:53Z</time>
      </trkpt>
      <trkpt lat="45.97682" lon="4.59514">
        <ele>486</ele>
        <time>2021-03-15T13:56:51Z</time>
      </trkpt>
      <trkpt lat="45.97686" lon="4.59497">
        <ele>488</ele>
        <time>2021-03-15T13:57:07Z</time>
      </trkpt>
      <trkpt lat="45.97688" lon="4.59449">
        <ele>491</ele>
        <time>2021-03-15T13:57:52Z</time>
      </trkpt>
      <trkpt lat="45.97707" lon="4.59381">
        <ele>493</ele>
        <time>2021-03-15T13:59:00Z</time>
      </trkpt>
      <trkpt lat="45.97717" lon="4.59322">
        <ele>495</ele>
        <time>2021-03-15T13:59:56Z</time>
      </trkpt>
      <trkpt lat="45.97704" lon="4.59334">
        <ele>495</ele>
        <time>2021-03-15T14:00:17Z</time>
      </trkpt>
      <trkpt lat="45.97677" lon="4.59332">
        <ele>497</ele>
        <time>2021-03-15T14:00:53Z</time>
      </trkpt>
      <trkpt lat="45.9765" lon="4.5932">
        <ele>500</ele>
        <time>2021-03-15T14:01:30Z</time>
      </trkpt>
      <trkpt lat="45.97636" lon="4.59306">
        <ele>502</ele>
        <time>2021-03-15T14:01:53Z</time>
      </trkpt>
      <trkpt lat="45.97615" lon="4.59255">
        <ele>506</ele>
        <time>2021-03-15T14:02:48Z</time>
      </trkpt>
      <trkpt lat="45.97599" lon="4.59234">
        <ele>510</ele>
        <time>2021-03-15T14:03:17Z</time>
      </trkpt>
      <trkpt lat="45.97545" lon="4.59198">
        <ele>517</ele>
        <time>2021-03-15T14:04:36Z</time>
      </trkpt>
      <trkpt lat="45.97524" lon="4.59188">
        <ele>520</ele>
        <time>2021-03-15T14:05:06Z</time>
      </trkpt>
      <trkpt lat="45.97494" lon="4.5915">
        <ele>525</ele>
        <time>2021-03-15T14:05:59Z</time>
      </trkpt>
      <trkpt lat="45.97395" lon="4.59037">
        <ele>544</ele>
        <time>2021-03-15T14:08:48Z</time>
      </trkpt>
      <trkpt lat="45.97356" lon="4.58981">
        <ele>550</ele>
        <time>2021-03-15T14:10:01Z</time>
      </trkpt>
      <trkpt lat="45.97318" lon="4.58939">
        <ele>556</ele>
        <time>2021-03-15T14:11:05Z</time>
      </trkpt>
      <trkpt lat="45.97279" lon="4.58882">
        <ele>562</ele>
        <time>2021-03-15T14:12:20Z</time>
      </trkpt>
      <trkpt lat="45.97252" lon="4.58851">
        <ele>565</ele>
        <time>2021-03-15T14:13:06Z</time>
      </trkpt>
      <trkpt lat="45.97221" lon="4.58827">
        <ele>567</ele>
        <time>2021-03-15T14:13:53Z</time>
      </trkpt>
      <trkpt lat="45.97175" lon="4.58768">
        <ele>572</ele>
        <time>2021-03-15T14:15:15Z</time>
      </trkpt>
      <trkpt lat="45.97141" lon="4.58743">
        <ele>576</ele>
        <time>2021-03-15T14:16:06Z</time>
      </trkpt>
      <trkpt lat="45.971" lon="4.58732">
        <ele>582</ele>
        <time>2021-03-15T14:17:02Z</time>
      </trkpt>
      <trkpt lat="45.97031" lon="4.58707">
        <ele>588</ele>
        <time>2021-03-15T14:18:36Z</time>
      </trkpt>
      <trkpt lat="45.96996" lon="4.5869">
        <ele>590</ele>
        <time>2021-03-15T14:19:26Z</time>
      </trkpt>
      <trkpt lat="45.96959" lon="4.58676">
        <ele>590</ele>
        <time>2021-03-15T14:20:17Z</time>
      </trkpt>
      <trkpt lat="45.9695" lon="4.58676">
        <ele>590</ele>
        <time>2021-03-15T14:20:29Z</time>
      </trkpt>
      <trkpt lat="45.9694" lon="4.58676">
        <ele>590</ele>
        <time>2021-03-15T14:20:42Z</time>
      </trkpt>
      <trkpt lat="45.96629" lon="4.58867">
        <ele>600</ele>
        <time>2021-03-15T14:28:13Z</time>
      </trkpt>
      <trkpt lat="45.96591" lon="4.58876">
        <ele>602</ele>
        <time>2021-03-15T14:29:05Z</time>
      </trkpt>
      <trkpt lat="45.96507" lon="4.58875">
        <ele>606</ele>
        <time>2021-03-15T14:30:57Z</time>
      </trkpt>
      <trkpt lat="45.96447" lon="4.5887">
        <ele>606</ele>
        <time>2021-03-15T14:32:17Z</time>
      </trkpt>
      <trkpt lat="45.96406" lon="4.58875">
        <ele>606</ele>
        <time>2021-03-15T14:33:12Z</time>
      </trkpt>
      <trkpt lat="45.96355" lon="4.58879">
        <ele>605</ele>
        <time>2021-03-15T14:34:20Z</time>
      </trkpt>
      <trkpt lat="45.96319" lon="4.5889">
        <ele>606</ele>
        <time>2021-03-15T14:35:09Z</time>
      </trkpt>
      <trkpt lat="45.96269" lon="4.58912">
        <ele>607</ele>
        <time>2021-03-15T14:36:19Z</time>
      </trkpt>
      <trkpt lat="45.9622" lon="4.58941">
        <ele>606</ele>
        <time>2021-03-15T14:37:30Z</time>
      </trkpt>
      <trkpt lat="45.96185" lon="4.58953">
        <ele>605</ele>
        <time>2021-03-15T14:38:18Z</time>
      </trkpt>
      <trkpt lat="45.9615" lon="4.58962">
        <ele>605</ele>
        <time>2021-03-15T14:39:05Z</time>
      </trkpt>
      <trkpt lat="45.9615" lon="4.58968">
        <ele>606</ele>
        <time>2021-03-15T14:39:11Z</time>
      </trkpt>
      <trkpt lat="45.96147" lon="4.58987">
        <ele>607</ele>
        <time>2021-03-15T14:39:29Z</time>
      </trkpt>
      <trkpt lat="45.96142" lon="4.59001">
        <ele>609</ele>
        <time>2021-03-15T14:39:43Z</time>
      </trkpt>
      <trkpt lat="45.96135" lon="4.59008">
        <ele>610</ele>
        <time>2021-03-15T14:39:55Z</time>
      </trkpt>
      <trkpt lat="45.96102" lon="4.59023">
        <ele>614</ele>
        <time>2021-03-15T14:40:41Z</time>
      </trkpt>
      <trkpt lat="45.96093" lon="4.59033">
        <ele>615</ele>
        <time>2021-03-15T14:40:56Z</time>
      </trkpt>
      <trkpt lat="45.96073" lon="4.59063">
        <ele>621</ele>
        <time>2021-03-15T14:41:35Z</time>
      </trkpt>
      <trkpt lat="45.96061" lon="4.59076">
        <ele>624</ele>
        <time>2021-03-15T14:41:55Z</time>
      </trkpt>
      <trkpt lat="45.96028" lon="4.59096">
        <ele>628</ele>
        <time>2021-03-15T14:42:43Z</time>
      </trkpt>
      <trkpt lat="45.96" lon="4.59122">
        <ele>631</ele>
        <time>2021-03-15T14:43:27Z</time>
      </trkpt>
      <trkpt lat="45.95948" lon="4.59156">
        <ele>630</ele>
        <time>2021-03-15T14:44:43Z</time>
      </trkpt>
      <trkpt lat="45.95932" lon="4.59163">
        <ele>629</ele>
        <time>2021-03-15T14:45:06Z</time>
      </trkpt>
      <trkpt lat="45.9592" lon="4.59174">
        <ele>630</ele>
        <time>2021-03-15T14:45:25Z</time>
      </trkpt>
      <trkpt lat="45.95898" lon="4.592">
        <ele>631</ele>
        <time>2021-03-15T14:46:03Z</time>
      </trkpt>
      <trkpt lat="45.95887" lon="4.59211">
        <ele>631</ele>
        <time>2021-03-15T14:46:21Z</time>
      </trkpt>
      <trkpt lat="45.95863" lon="4.59224">
        <ele>631</ele>
        <time>2021-03-15T14:46:55Z</time>
      </trkpt>
      <trkpt lat="45.95807" lon="4.5924">
        <ele>632</ele>
        <time>2021-03-15T14:48:11Z</time>
      </trkpt>
      <trkpt lat="45.95768" lon="4.59257">
        <ele>634</ele>
        <time>2021-03-15T14:49:05Z</time>
      </trkpt>
      <trkpt lat="45.9574" lon="4.59276">
        <ele>635</ele>
        <time>2021-03-15T14:49:47Z</time>
      </trkpt>
      <trkpt lat="45.9569" lon="4.593">
        <ele>637</ele>
        <time>2021-03-15T14:50:57Z</time>
      </trkpt>
      <trkpt lat="45.95652" lon="4.59321">
        <ele>641</ele>
        <time>2021-03-15T14:51:51Z</time>
      </trkpt>
      <trkpt lat="45.95556" lon="4.59366">
        <ele>645</ele>
        <time>2021-03-15T14:54:06Z</time>
      </trkpt>
      <trkpt lat="45.95537" lon="4.59383">
        <ele>646</ele>
        <time>2021-03-15T14:54:36Z</time>
      </trkpt>
      <trkpt lat="45.95486" lon="4.59424">
        <ele>648</ele>
        <time>2021-03-15T14:55:54Z</time>
      </trkpt>
      <trkpt lat="45.95462" lon="4.59446">
        <ele>647</ele>
        <time>2021-03-15T14:56:32Z</time>
      </trkpt>
      <trkpt lat="45.95443" lon="4.59468">
        <ele>647</ele>
        <time>2021-03-15T14:57:04Z</time>
      </trkpt>
      <trkpt lat="45.95437" lon="4.59471">
        <ele>647</ele>
        <time>2021-03-15T14:57:13Z</time>
      </trkpt>
      <trkpt lat="45.95413" lon="4.59496">
        <ele>646</ele>
        <time>2021-03-15T14:57:52Z</time>
      </trkpt>
      <trkpt lat="45.95407" lon="4.59498">
        <ele>646</ele>
        <time>2021-03-15T14:58:01Z</time>
      </trkpt>
      <trkpt lat="45.95397" lon="4.59507">
        <ele>645</ele>
        <time>2021-03-15T14:58:16Z</time>
      </trkpt>
      <trkpt lat="45.95389" lon="4.5952">
        <ele>645</ele>
        <time>2021-03-15T14:58:32Z</time>
      </trkpt>
      <trkpt lat="45.95367" lon="4.59568">
        <ele>645</ele>
        <time>2021-03-15T14:59:26Z</time>
      </trkpt>
      <trkpt lat="45.95341" lon="4.59637">
        <ele>647</ele>
        <time>2021-03-15T15:00:39Z</time>
      </trkpt>
      <trkpt lat="45.95303" lon="4.59691">
        <ele>643</ele>
        <time>2021-03-15T15:01:50Z</time>
      </trkpt>
      <trkpt lat="45.95288" lon="4.59742">
        <ele>642</ele>
        <time>2021-03-15T15:02:41Z</time>
      </trkpt>
      <trkpt lat="45.95276" lon="4.59778">
        <ele>641</ele>
        <time>2021-03-15T15:03:18Z</time>
      </trkpt>
      <trkpt lat="45.95253" lon="4.59867">
        <ele>636</ele>
        <time>2021-03-15T15:04:46Z</time>
      </trkpt>
      <trkpt lat="45.95208" lon="4.60002">
        <ele>618</ele>
        <time>2021-03-15T15:07:05Z</time>
      </trkpt>
      <trkpt lat="45.95197" lon="4.6003">
        <ele>613</ele>
        <time>2021-03-15T15:07:35Z</time>
      </trkpt>
      <trkpt lat="45.95148" lon="4.60114">
        <ele>598</ele>
        <time>2021-03-15T15:09:17Z</time>
      </trkpt>
      <trkpt lat="45.95124" lon="4.60151">
        <ele>590</ele>
        <time>2021-03-15T15:10:04Z</time>
      </trkpt>
      <trkpt lat="45.95104" lon="4.60191">
        <ele>583</ele>
        <time>2021-03-15T15:10:50Z</time>
      </trkpt>
      <trkpt lat="45.95081" lon="4.60229">
        <ele>576</ele>
        <time>2021-03-15T15:11:36Z</time>
      </trkpt>
      <trkpt lat="45.95058" lon="4.60241">
        <ele>574</ele>
        <time>2021-03-15T15:12:09Z</time>
      </trkpt>
      <trkpt lat="45.95029" lon="4.60264">
        <ele>573</ele>
        <time>2021-03-15T15:12:53Z</time>
      </trkpt>
      <trkpt lat="45.95013" lon="4.60273">
        <ele>572</ele>
        <time>2021-03-15T15:13:16Z</time>
      </trkpt>
      <trkpt lat="45.95004" lon="4.60273">
        <ele>572</ele>
        <time>2021-03-15T15:13:28Z</time>
      </trkpt>
      <trkpt lat="45.95003" lon="4.60282">
        <ele>572</ele>
        <time>2021-03-15T15:13:37Z</time>
      </trkpt>
      <trkpt lat="45.94983" lon="4.60315">
        <ele>570</ele>
        <time>2021-03-15T15:14:17Z</time>
      </trkpt>
      <trkpt lat="45.94911" lon="4.60419">
        <ele>573</ele>
        <time>2021-03-15T15:16:33Z</time>
      </trkpt>
      <trkpt lat="45.94899" lon="4.6044">
        <ele>570</ele>
        <time>2021-03-15T15:16:59Z</time>
      </trkpt>
      <trkpt lat="45.94863" lon="4.60495">
        <ele>568</ele>
        <time>2021-03-15T15:18:09Z</time>
      </trkpt>
      <trkpt lat="45.9483" lon="4.60551">
        <ele>572</ele>
        <time>2021-03-15T15:19:17Z</time>
      </trkpt>
      <trkpt lat="45.94819" lon="4.6058">
        <ele>572</ele>
        <time>2021-03-15T15:19:47Z</time>
      </trkpt>
      <trkpt lat="45.94813" lon="4.60623">
        <ele>573</ele>
        <time>2021-03-15T15:20:28Z</time>
      </trkpt>
      <trkpt lat="45.94809" lon="4.60642">
        <ele>573</ele>
        <time>2021-03-15T15:20:46Z</time>
      </trkpt>
      <trkpt lat="45.94818" lon="4.60673">
        <ele>576</ele>
        <time>2021-03-15T15:21:18Z</time>
      </trkpt>
      <trkpt lat="45.94842" lon="4.6074">
        <ele>580</ele>
        <time>2021-03-15T15:22:28Z</time>
      </trkpt>
      <trkpt lat="45.94876" lon="4.6088">
        <ele>575</ele>
        <time>2021-03-15T15:24:45Z</time>
      </trkpt>
      <trkpt lat="45.94875" lon="4.60927">
        <ele>573</ele>
        <time>2021-03-15T15:25:29Z</time>
      </trkpt>
      <trkpt lat="45.94864" lon="4.60958">
        <ele>571</ele>
        <time>2021-03-15T15:26:01Z</time>
      </trkpt>
      <trkpt lat="45.94843" lon="4.61011">
        <ele>568</ele>
        <time>2021-03-15T15:26:58Z</time>
      </trkpt>
      <trkpt lat="45.94829" lon="4.61038">
        <ele>566</ele>
        <time>2021-03-15T15:27:29Z</time>
      </trkpt>
      <trkpt lat="45.94798" lon="4.61146">
        <ele>558</ele>
        <time>2021-03-15T15:29:17Z</time>
      </trkpt>
      <trkpt lat="45.94776" lon="4.61195">
        <ele>555</ele>
        <time>2021-03-15T15:30:12Z</time>
      </trkpt>
      <trkpt lat="45.94754" lon="4.61241">
        <ele>552</ele>
        <time>2021-03-15T15:31:03Z</time>
      </trkpt>
      <trkpt lat="45.94739" lon="4.61307">
        <ele>542</ele>
        <time>2021-03-15T15:32:08Z</time>
      </trkpt>
      <trkpt lat="45.9473" lon="4.61313">
        <ele>542</ele>
        <time>2021-03-15T15:32:21Z</time>
      </trkpt>
      <trkpt lat="45.94722" lon="4.61318">
        <ele>541</ele>
        <time>2021-03-15T15:32:33Z</time>
      </trkpt>
      <trkpt lat="45.94664" lon="4.6133">
        <ele>543</ele>
        <time>2021-03-15T15:33:51Z</time>
      </trkpt>
      <trkpt lat="45.94606" lon="4.61373">
        <ele>541</ele>
        <time>2021-03-15T15:35:18Z</time>
      </trkpt>
      <trkpt lat="45.94573" lon="4.61388">
        <ele>539</ele>
        <time>2021-03-15T15:36:04Z</time>
      </trkpt>
      <trkpt lat="45.94551" lon="4.61403">
        <ele>538</ele>
        <time>2021-03-15T15:36:37Z</time>
      </trkpt>
      <trkpt lat="45.94532" lon="4.61419">
        <ele>536</ele>
        <time>2021-03-15T15:37:06Z</time>
      </trkpt>
      <trkpt lat="45.94423" lon="4.6146">
        <ele>532</ele>
        <time>2021-03-15T15:39:36Z</time>
      </trkpt>
      <trkpt lat="45.94409" lon="4.61467">
        <ele>531</ele>
        <time>2021-03-15T15:39:56Z</time>
      </trkpt>
      <trkpt lat="45.94374" lon="4.61475">
        <ele>530</ele>
        <time>2021-03-15T15:40:43Z</time>
      </trkpt>
      <trkpt lat="45.94306" lon="4.6147">
        <ele>529</ele>
        <time>2021-03-15T15:42:14Z</time>
      </trkpt>
      <trkpt lat="45.94282" lon="4.61473">
        <ele>526</ele>
        <time>2021-03-15T15:42:46Z</time>
      </trkpt>
      <trkpt lat="45.94274" lon="4.61475">
        <ele>525</ele>
        <time>2021-03-15T15:42:57Z</time>
      </trkpt>
      <trkpt lat="45.94258" lon="4.61488">
        <ele>523</ele>
        <time>2021-03-15T15:43:22Z</time>
      </trkpt>
      <trkpt lat="45.94243" lon="4.61495">
        <ele>520</ele>
        <time>2021-03-15T15:43:43Z</time>
      </trkpt>
      <trkpt lat="45.94239" lon="4.61493">
        <ele>519</ele>
        <time>2021-03-15T15:43:48Z</time>
      </trkpt>
      <trkpt lat="45.94233" lon="4.61495">
        <ele>517</ele>
        <time>2021-03-15T15:43:57Z</time>
      </trkpt>
      <trkpt lat="45.94227" lon="4.61492">
        <ele>516</ele>
        <time>2021-03-15T15:44:05Z</time>
      </trkpt>
      <trkpt lat="45.94219" lon="4.61491">
        <ele>513</ele>
        <time>2021-03-15T15:44:16Z</time>
      </trkpt>
      <trkpt lat="45.94218" lon="4.61495">
        <ele>513</ele>
        <time>2021-03-15T15:44:20Z</time>
      </trkpt>
      <trkpt lat="45.94212" lon="4.61517">
        <ele>509</ele>
        <time>2021-03-15T15:44:42Z</time>
      </trkpt>
      <trkpt lat="45.94208" lon="4.61542">
        <ele>505</ele>
        <time>2021-03-15T15:45:06Z</time>
      </trkpt>
      <trkpt lat="45.94202" lon="4.6157">
        <ele>500</ele>
        <time>2021-03-15T15:45:33Z</time>
      </trkpt>
      <trkpt lat="45.94199" lon="4.61587">
        <ele>498</ele>
        <time>2021-03-15T15:45:49Z</time>
      </trkpt>
      <trkpt lat="45.94199" lon="4.61594">
        <ele>497</ele>
        <time>2021-03-15T15:45:55Z</time>
      </trkpt>
      <trkpt lat="45.94187" lon="4.61605">
        <ele>493</ele>
        <time>2021-03-15T15:46:14Z</time>
      </trkpt>
      <trkpt lat="45.94157" lon="4.61624">
        <ele>486</ele>
        <time>2021-03-15T15:46:58Z</time>
      </trkpt>
      <trkpt lat="45.94135" lon="4.61621">
        <ele>482</ele>
        <time>2021-03-15T15:47:28Z</time>
      </trkpt>
      <trkpt lat="45.94127" lon="4.61622">
        <ele>480</ele>
        <time>2021-03-15T15:47:38Z</time>
      </trkpt>
      <trkpt lat="45.94098" lon="4.61632">
        <ele>475</ele>
        <time>2021-03-15T15:48:18Z</time>
      </trkpt>
      <trkpt lat="45.94069" lon="4.61652">
        <ele>471</ele>
        <time>2021-03-15T15:49:01Z</time>
      </trkpt>
      <trkpt lat="45.94042" lon="4.61655">
        <ele>468</ele>
        <time>2021-03-15T15:49:37Z</time>
      </trkpt>
      <trkpt lat="45.94029" lon="4.61664">
        <ele>467</ele>
        <time>2021-03-15T15:49:57Z</time>
      </trkpt>
      <trkpt lat="45.94018" lon="4.61688">
        <ele>465</ele>
        <time>2021-03-15T15:50:23Z</time>
      </trkpt>
      <trkpt lat="45.94033" lon="4.61691">
        <ele>466</ele>
        <time>2021-03-15T15:50:43Z</time>
      </trkpt>
      <trkpt lat="45.94018" lon="4.61688">
        <ele>465</ele>
        <time>2021-03-15T15:51:04Z</time>
      </trkpt>
      <trkpt lat="45.94015" lon="4.61699">
        <ele>464</ele>
        <time>2021-03-15T15:51:15Z</time>
      </trkpt>
      <trkpt lat="45.94013" lon="4.61711">
        <ele>463</ele>
        <time>2021-03-15T15:51:26Z</time>
      </trkpt>
      <trkpt lat="45.94038" lon="4.61744">
        <ele>464</ele>
        <time>2021-03-15T15:52:11Z</time>
      </trkpt>
      <trkpt lat="45.94048" lon="4.61764">
        <ele>462</ele>
        <time>2021-03-15T15:52:34Z</time>
      </trkpt>
      <trkpt lat="45.94065" lon="4.61782">
        <ele>461</ele>
        <time>2021-03-15T15:53:02Z</time>
      </trkpt>
      <trkpt lat="45.94083" lon="4.61797">
        <ele>461</ele>
        <time>2021-03-15T15:53:30Z</time>
      </trkpt>
      <trkpt lat="45.94098" lon="4.61805">
        <ele>459</ele>
        <time>2021-03-15T15:53:51Z</time>
      </trkpt>
      <trkpt lat="45.94099" lon="4.61811">
        <ele>458</ele>
        <time>2021-03-15T15:53:57Z</time>
      </trkpt>
      <trkpt lat="45.94112" lon="4.61825">
        <ele>456</ele>
        <time>2021-03-15T15:54:19Z</time>
      </trkpt>
      <trkpt lat="45.94144" lon="4.61847">
        <ele>451</ele>
        <time>2021-03-15T15:55:06Z</time>
      </trkpt>
      <trkpt lat="45.94185" lon="4.61858">
        <ele>449</ele>
        <time>2021-03-15T15:56:02Z</time>
      </trkpt>
      <trkpt lat="45.9421" lon="4.61875">
        <ele>448</ele>
        <time>2021-03-15T15:56:39Z</time>
      </trkpt>
      <trkpt lat="45.9422" lon="4.61937">
        <ele>439</ele>
        <time>2021-03-15T15:57:38Z</time>
      </trkpt>
      <trkpt lat="45.94277" lon="4.62004">
        <ele>432</ele>
        <time>2021-03-15T15:59:16Z</time>
      </trkpt>
      <trkpt lat="45.9431" lon="4.62031">
        <ele>428</ele>
        <time>2021-03-15T16:00:07Z</time>
      </trkpt>
      <trkpt lat="45.94349" lon="4.62073">
        <ele>420</ele>
        <time>2021-03-15T16:01:12Z</time>
      </trkpt>
      <trkpt lat="45.94372" lon="4.62081">
        <ele>418</ele>
        <time>2021-03-15T16:01:43Z</time>
      </trkpt>
      <trkpt lat="45.94402" lon="4.62086">
        <ele>415</ele>
        <time>2021-03-15T16:02:24Z</time>
      </trkpt>
      <trkpt lat="45.9442" lon="4.62092">
        <ele>414</ele>
        <time>2021-03-15T16:02:48Z</time>
      </trkpt>
      <trkpt lat="45.9443" lon="4.62099">
        <ele>413</ele>
        <time>2021-03-15T16:03:03Z</time>
      </trkpt>
      <trkpt lat="45.94435" lon="4.62104">
        <ele>412</ele>
        <time>2021-03-15T16:03:11Z</time>
      </trkpt>
      <trkpt lat="45.94459" lon="4.62157">
        <ele>405</ele>
        <time>2021-03-15T16:04:10Z</time>
      </trkpt>
      <trkpt lat="45.94468" lon="4.62151">
        <ele>406</ele>
        <time>2021-03-15T16:04:23Z</time>
      </trkpt>
      <trkpt lat="45.94473" lon="4.62147">
        <ele>406</ele>
        <time>2021-03-15T16:04:31Z</time>
      </trkpt>
      <trkpt lat="45.94468" lon="4.62151">
        <ele>406</ele>
        <time>2021-03-15T16:04:38Z</time>
      </trkpt>
      <trkpt lat="45.94459" lon="4.62157">
        <ele>405</ele>
        <time>2021-03-15T16:04:52Z</time>
      </trkpt>
      <trkpt lat="45.94431" lon="4.62166">
        <ele>406</ele>
        <time>2021-03-15T16:05:30Z</time>
      </trkpt>
      <trkpt lat="45.94337" lon="4.6218">
        <ele>406</ele>
        <time>2021-03-15T16:07:36Z</time>
      </trkpt>
      <trkpt lat="45.94362" lon="4.62197">
        <ele>404</ele>
        <time>2021-03-15T16:08:13Z</time>
      </trkpt>
      <trkpt lat="45.94419" lon="4.62239">
        <ele>402</ele>
        <time>2021-03-15T16:09:38Z</time>
      </trkpt>
      <trkpt lat="45.94454" lon="4.62255">
        <ele>401</ele>
        <time>2021-03-15T16:10:27Z</time>
      </trkpt>
      <trkpt lat="45.94462" lon="4.62266">
        <ele>401</ele>
        <time>2021-03-15T16:10:42Z</time>
      </trkpt>
      <trkpt lat="45.94464" lon="4.62271">
        <ele>400</ele>
        <time>2021-03-15T16:10:48Z</time>
      </trkpt>
      <trkpt lat="45.94499" lon="4.62256">
        <ele>401</ele>
        <time>2021-03-15T16:11:36Z</time>
      </trkpt>
      <trkpt lat="45.94521" lon="4.62289">
        <ele>397</ele>
        <time>2021-03-15T16:12:19Z</time>
      </trkpt>
      <trkpt lat="45.94543" lon="4.62331">
        <ele>395</ele>
        <time>2021-03-15T16:13:08Z</time>
      </trkpt>
      <trkpt lat="45.94608" lon="4.62447">
        <ele>391</ele>
        <time>2021-03-15T16:15:26Z</time>
      </trkpt>
      <trkpt lat="45.94637" lon="4.62486">
        <ele>389</ele>
        <time>2021-03-15T16:16:19Z</time>
      </trkpt>
      <trkpt lat="45.94685" lon="4.62531">
        <ele>387</ele>
        <time>2021-03-15T16:17:35Z</time>
      </trkpt>
      <trkpt lat="45.94718" lon="4.62585">
        <ele>388</ele>
        <time>2021-03-15T16:18:42Z</time>
      </trkpt>
      <trkpt lat="45.94814" lon="4.62718">
        <ele>393</ele>
        <time>2021-03-15T16:21:40Z</time>
      </trkpt>
      <trkpt lat="45.94826" lon="4.6274">
        <ele>395</ele>
        <time>2021-03-15T16:22:06Z</time>
      </trkpt>
      <trkpt lat="45.94822" lon="4.62752">
        <ele>396</ele>
        <time>2021-03-15T16:22:18Z</time>
      </trkpt>
      <trkpt lat="45.94818" lon="4.62797">
        <ele>395</ele>
        <time>2021-03-15T16:23:00Z</time>
      </trkpt>
      <trkpt lat="45.94815" lon="4.62893">
        <ele>388</ele>
        <time>2021-03-15T16:24:29Z</time>
      </trkpt>
      <trkpt lat="45.94816" lon="4.62941">
        <ele>384</ele>
        <time>2021-03-15T16:25:14Z</time>
      </trkpt>
      <trkpt lat="45.94814" lon="4.62976">
        <ele>381</ele>
        <time>2021-03-15T16:25:47Z</time>
      </trkpt>
      <trkpt lat="45.94816" lon="4.63">
        <ele>380</ele>
        <time>2021-03-15T16:26:09Z</time>
      </trkpt>
      <trkpt lat="45.94864" lon="4.62986">
        <ele>381</ele>
        <time>2021-03-15T16:27:14Z</time>
      </trkpt>
      <trkpt lat="45.94855" lon="4.63036">
        <ele>376</ele>
        <time>2021-03-15T16:28:02Z</time>
      </trkpt>
      <trkpt lat="45.94856" lon="4.63042">
        <ele>375</ele>
        <time>2021-03-15T16:28:08Z</time>
      </trkpt>
      <trkpt lat="45.94859" lon="4.63045">
        <ele>375</ele>
        <time>2021-03-15T16:28:13Z</time>
      </trkpt>
      <trkpt lat="45.94879" lon="4.6305">
        <ele>374</ele>
        <time>2021-03-15T16:28:40Z</time>
      </trkpt>
      <trkpt lat="45.94883" lon="4.63056">
        <ele>373</ele>
        <time>2021-03-15T16:28:48Z</time>
      </trkpt>
      <trkpt lat="45.94884" lon="4.631">
        <ele>366</ele>
        <time>2021-03-15T16:29:28Z</time>
      </trkpt>
      <trkpt lat="45.94882" lon="4.63238">
        <ele>345</ele>
        <time>2021-03-15T16:31:37Z</time>
      </trkpt>
      <trkpt lat="45.94877" lon="4.63242">
        <ele>345</ele>
        <time>2021-03-15T16:31:44Z</time>
      </trkpt>
      <trkpt lat="45.94882" lon="4.63238">
        <ele>345</ele>
        <time>2021-03-15T16:31:52Z</time>
      </trkpt>
      <trkpt lat="45.94887" lon="4.63244">
        <ele>345</ele>
        <time>2021-03-15T16:32:00Z</time>
      </trkpt>
      <trkpt lat="45.95025" lon="4.63255">
        <ele>348</ele>
        <time>2021-03-15T16:35:05Z</time>
      </trkpt>
      <trkpt lat="45.95021" lon="4.63293">
        <ele>344</ele>
        <time>2021-03-15T16:35:41Z</time>
      </trkpt>
      <trkpt lat="45.95017" lon="4.63311">
        <ele>342</ele>
        <time>2021-03-15T16:35:58Z</time>
      </trkpt>
      <trkpt lat="45.95009" lon="4.63329">
        <ele>340</ele>
        <time>2021-03-15T16:36:18Z</time>
      </trkpt>
      <trkpt lat="45.94994" lon="4.63352">
        <ele>338</ele>
        <time>2021-03-15T16:36:47Z</time>
      </trkpt>
      <trkpt lat="45.94986" lon="4.63374">
        <ele>337</ele>
        <time>2021-03-15T16:37:10Z</time>
      </trkpt>
      <trkpt lat="45.94982" lon="4.63395">
        <ele>335</ele>
        <time>2021-03-15T16:37:30Z</time>
      </trkpt>
      <trkpt lat="45.94976" lon="4.63472">
        <ele>329</ele>
        <time>2021-03-15T16:38:42Z</time>
      </trkpt>
      <trkpt lat="45.94971" lon="4.63505">
        <ele>326</ele>
        <time>2021-03-15T16:39:14Z</time>
      </trkpt>
      <trkpt lat="45.94973" lon="4.63511">
        <ele>326</ele>
        <time>2021-03-15T16:39:20Z</time>
      </trkpt>
      <trkpt lat="45.94976" lon="4.63609">
        <ele>317</ele>
        <time>2021-03-15T16:40:51Z</time>
      </trkpt>
      <trkpt lat="45.94979" lon="4.63657">
        <ele>314</ele>
        <time>2021-03-15T16:41:36Z</time>
      </trkpt>
      <trkpt lat="45.94981" lon="4.63727">
        <ele>309</ele>
        <time>2021-03-15T16:42:41Z</time>
      </trkpt>
      <trkpt lat="45.94979" lon="4.63757">
        <ele>307</ele>
        <time>2021-03-15T16:43:09Z</time>
      </trkpt>
      <trkpt lat="45.94982" lon="4.63774">
        <ele>306</ele>
        <time>2021-03-15T16:43:25Z</time>
      </trkpt>
      <trkpt lat="45.94985" lon="4.63964">
        <ele>300</ele>
        <time>2021-03-15T16:46:21Z</time>
      </trkpt>
      <trkpt lat="45.94986" lon="4.64075">
        <ele>299</ele>
        <time>2021-03-15T16:48:04Z</time>
      </trkpt>
      <trkpt lat="45.94986" lon="4.64154">
        <ele>298</ele>
        <time>2021-03-15T16:49:17Z</time>
      </trkpt>
      <trkpt lat="45.94989" lon="4.64264">
        <ele>293</ele>
        <time>2021-03-15T16:51:00Z</time>
      </trkpt>
      <trkpt lat="45.94991" lon="4.64273">
        <ele>293</ele>
        <time>2021-03-15T16:51:08Z</time>
      </trkpt>
      <trkpt lat="45.9499" lon="4.64296">
        <ele>292</ele>
        <time>2021-03-15T16:51:30Z</time>
      </trkpt>
      <trkpt lat="45.94992" lon="4.64358">
        <ele>290</ele>
        <time>2021-03-15T16:52:27Z</time>
      </trkpt>
      <trkpt lat="45.94986" lon="4.64396">
        <ele>289</ele>
        <time>2021-03-15T16:53:03Z</time>
      </trkpt>
      <trkpt lat="45.94981" lon="4.64465">
        <ele>287</ele>
        <time>2021-03-15T16:54:08Z</time>
      </trkpt>
      <trkpt lat="45.94984" lon="4.64521">
        <ele>286</ele>
        <time>2021-03-15T16:55:00Z</time>
      </trkpt>
      <trkpt lat="45.94989" lon="4.64572">
        <ele>285</ele>
        <time>2021-03-15T16:55:48Z</time>
      </trkpt>
      <trkpt lat="45.94987" lon="4.64585">
        <ele>285</ele>
        <time>2021-03-15T16:56:00Z</time>
      </trkpt>
      <trkpt lat="45.94989" lon="4.6459">
        <ele>285</ele>
        <time>2021-03-15T16:56:05Z</time>
      </trkpt>
      <trkpt lat="45.94987" lon="4.64585">
        <ele>285</ele>
        <time>2021-03-15T16:56:11Z</time>
      </trkpt>
      <trkpt lat="45.94982" lon="4.64593">
        <ele>284</ele>
        <time>2021-03-15T16:56:21Z</time>
      </trkpt>
      <trkpt lat="45.94973" lon="4.64597">
        <ele>283</ele>
        <time>2021-03-15T16:56:33Z</time>
      </trkpt>
      <trkpt lat="45.94938" lon="4.64598">
        <ele>281</ele>
        <time>2021-03-15T16:57:20Z</time>
      </trkpt>
      <trkpt lat="45.94931" lon="4.64607">
        <ele>280</ele>
        <time>2021-03-15T16:57:33Z</time>
      </trkpt>
      <trkpt lat="45.94926" lon="4.64628">
        <ele>279</ele>
        <time>2021-03-15T16:57:53Z</time>
      </trkpt>
      <trkpt lat="45.94926" lon="4.64691">
        <ele>277</ele>
        <time>2021-03-15T16:58:52Z</time>
      </trkpt>
      <trkpt lat="45.94946" lon="4.64838">
        <ele>276</ele>
        <time>2021-03-15T17:01:11Z</time>
      </trkpt>
      <trkpt lat="45.94955" lon="4.64888">
        <ele>275</ele>
        <time>2021-03-15T17:01:59Z</time>
      </trkpt>
      <trkpt lat="45.94979" lon="4.64883">
        <ele>277</ele>
        <time>2021-03-15T17:02:31Z</time>
      </trkpt>
      <trkpt lat="45.95052" lon="4.64854">
        <ele>279</ele>
        <time>2021-03-15T17:04:12Z</time>
      </trkpt>
      <trkpt lat="45.95087" lon="4.64832">
        <ele>279</ele>
        <time>2021-03-15T17:05:03Z</time>
      </trkpt>
      <trkpt lat="45.95134" lon="4.64787">
        <ele>276</ele>
        <time>2021-03-15T17:06:18Z</time>
      </trkpt>
      <trkpt lat="45.95169" lon="4.64759">
        <ele>276</ele>
        <time>2021-03-15T17:07:12Z</time>
      </trkpt>
      <trkpt lat="45.95195" lon="4.64754">
        <ele>278</ele>
        <time>2021-03-15T17:07:47Z</time>
      </trkpt>
      <trkpt lat="45.95233" lon="4.64753">
        <ele>281</ele>
        <time>2021-03-15T17:08:37Z</time>
      </trkpt>
      <trkpt lat="45.95286" lon="4.6476">
        <ele>285</ele>
        <time>2021-03-15T17:09:48Z</time>
      </trkpt>
      <trkpt lat="45.95306" lon="4.64753">
        <ele>287</ele>
        <time>2021-03-15T17:10:16Z</time>
      </trkpt>
      <trkpt lat="45.95325" lon="4.64754">
        <ele>288</ele>
        <time>2021-03-15T17:10:41Z</time>
      </trkpt>
      <trkpt lat="45.95374" lon="4.64775">
        <ele>294</ele>
        <time>2021-03-15T17:11:50Z</time>
      </trkpt>
      <trkpt lat="45.95405" lon="4.64795">
        <ele>298</ele>
        <time>2021-03-15T17:12:35Z</time>
      </trkpt>
      <trkpt lat="45.95429" lon="4.64802">
        <ele>300</ele>
        <time>2021-03-15T17:13:08Z</time>
      </trkpt>
      <trkpt lat="45.95453" lon="4.64803">
        <ele>302</ele>
        <time>2021-03-15T17:13:40Z</time>
      </trkpt>
      <trkpt lat="45.9549" lon="4.64811">
        <ele>305</ele>
        <time>2021-03-15T17:14:30Z</time>
      </trkpt>
      <trkpt lat="45.95507" lon="4.64793">
        <ele>306</ele>
        <time>2021-03-15T17:14:58Z</time>
      </trkpt>
      <trkpt lat="45.95524" lon="4.64779">
        <ele>305</ele>
        <time>2021-03-15T17:15:24Z</time>
      </trkpt>
      <trkpt lat="45.95557" lon="4.64773">
        <ele>304</ele>
        <time>2021-03-15T17:16:08Z</time>
      </trkpt>
      <trkpt lat="45.95595" lon="4.64758">
        <ele>301</ele>
        <time>2021-03-15T17:17:01Z</time>
      </trkpt>
      <trkpt lat="45.95682" lon="4.64761">
        <ele>289</ele>
        <time>2021-03-15T17:18:57Z</time>
      </trkpt>
      <trkpt lat="45.95703" lon="4.64748">
        <ele>286</ele>
        <time>2021-03-15T17:19:27Z</time>
      </trkpt>
      <trkpt lat="45.95726" lon="4.64719">
        <ele>283</ele>
        <time>2021-03-15T17:20:08Z</time>
      </trkpt>
      <trkpt lat="45.95752" lon="4.64686">
        <ele>279</ele>
        <time>2021-03-15T17:20:55Z</time>
      </trkpt>
      <trkpt lat="45.95769" lon="4.64667">
        <ele>277</ele>
        <time>2021-03-15T17:21:23Z</time>
      </trkpt>
      <trkpt lat="45.9578" lon="4.64658">
        <ele>275</ele>
        <time>2021-03-15T17:21:40Z</time>
      </trkpt>
      <trkpt lat="45.95809" lon="4.64643">
        <ele>269</ele>
        <time>2021-03-15T17:22:21Z</time>
      </trkpt>
      <trkpt lat="45.95819" lon="4.64654">
        <ele>267</ele>
        <time>2021-03-15T17:22:38Z</time>
      </trkpt>
      <trkpt lat="45.95835" lon="4.64664">
        <ele>265</ele>
        <time>2021-03-15T17:23:01Z</time>
      </trkpt>
      <trkpt lat="45.95874" lon="4.64667">
        <ele>261</ele>
        <time>2021-03-15T17:23:53Z</time>
      </trkpt>
      <trkpt lat="45.9589" lon="4.64687">
        <ele>259</ele>
        <time>2021-03-15T17:24:22Z</time>
      </trkpt>
      <trkpt lat="45.95912" lon="4.64743">
        <ele>257</ele>
        <time>2021-03-15T17:25:21Z</time>
      </trkpt>
      <trkpt lat="45.95943" lon="4.64735">
        <ele>255</ele>
        <time>2021-03-15T17:26:03Z</time>
      </trkpt>
      <trkpt lat="45.95955" lon="4.64756">
        <ele>255</ele>
        <time>2021-03-15T17:26:29Z</time>
      </trkpt>
      <trkpt lat="45.95986" lon="4.64755">
        <ele>253</ele>
        <time>2021-03-15T17:27:10Z</time>
      </trkpt>
      <trkpt lat="45.95999" lon="4.64763">
        <ele>252</ele>
        <time>2021-03-15T17:27:29Z</time>
      </trkpt>
      <trkpt lat="45.96035" lon="4.6476">
        <ele>254</ele>
        <time>2021-03-15T17:28:17Z</time>
      </trkpt>
      <trkpt lat="45.96045" lon="4.64809">
        <ele>253</ele>
        <time>2021-03-15T17:29:04Z</time>
      </trkpt>
      <trkpt lat="45.96045" lon="4.64829">
        <ele>253</ele>
        <time>2021-03-15T17:29:23Z</time>
      </trkpt>
      <trkpt lat="45.96088" lon="4.64844">
        <ele>254</ele>
        <time>2021-03-15T17:30:22Z</time>
      </trkpt>
      <trkpt lat="45.96113" lon="4.64861">
        <ele>258</ele>
        <time>2021-03-15T17:30:59Z</time>
      </trkpt>
      <trkpt lat="45.9613" lon="4.64888">
        <ele>259</ele>
        <time>2021-03-15T17:31:33Z</time>
      </trkpt>
      <trkpt lat="45.96145" lon="4.64903">
        <ele>261</ele>
        <time>2021-03-15T17:31:57Z</time>
      </trkpt>
      <trkpt lat="45.96169" lon="4.64915">
        <ele>264</ele>
        <time>2021-03-15T17:32:31Z</time>
      </trkpt>
      <trkpt lat="45.96212" lon="4.64943">
        <ele>271</ele>
        <time>2021-03-15T17:33:34Z</time>
      </trkpt>
      <trkpt lat="45.9622" lon="4.64976">
        <ele>271</ele>
        <time>2021-03-15T17:34:06Z</time>
      </trkpt>
      <trkpt lat="45.96223" lon="4.64962">
        <ele>272</ele>
        <time>2021-03-15T17:34:20Z</time>
      </trkpt>
      <trkpt lat="45.9622" lon="4.64928">
        <ele>273</ele>
        <time>2021-03-15T17:34:52Z</time>
      </trkpt>
      <trkpt lat="45.96207" lon="4.64872">
        <ele>273</ele>
        <time>2021-03-15T17:35:47Z</time>
      </trkpt>
      <trkpt lat="45.96173" lon="4.64784">
        <ele>271</ele>
        <time>2021-03-15T17:37:20Z</time>
      </trkpt>
      <trkpt lat="45.96168" lon="4.64744">
        <ele>272</ele>
        <time>2021-03-15T17:37:58Z</time>
      </trkpt>
      <trkpt lat="45.96167" lon="4.64719">
        <ele>273</ele>
        <time>2021-03-15T17:38:21Z</time>
      </trkpt>
      <trkpt lat="45.96168" lon="4.64695">
        <ele>274</ele>
        <time>2021-03-15T17:38:43Z</time>
      </trkpt>
      <trkpt lat="45.96176" lon="4.64643">
        <ele>277</ele>
        <time>2021-03-15T17:39:33Z</time>
      </trkpt>
      <trkpt lat="45.96185" lon="4.64573">
        <ele>280</ele>
        <time>2021-03-15T17:40:39Z</time>
      </trkpt>
      <trkpt lat="45.96186" lon="4.64502">
        <ele>280</ele>
        <time>2021-03-15T17:41:45Z</time>
      </trkpt>
      <trkpt lat="45.96189" lon="4.64458">
        <ele>280</ele>
        <time>2021-03-15T17:42:26Z</time>
      </trkpt>
      <trkpt lat="45.96196" lon="4.6442">
        <ele>280</ele>
        <time>2021-03-15T17:43:02Z</time>
      </trkpt>
      <trkpt lat="45.96208" lon="4.64375">
        <ele>281</ele>
        <time>2021-03-15T17:43:47Z</time>
      </trkpt>
      <trkpt lat="45.96282" lon="4.64169">
        <ele>287</ele>
        <time>2021-03-15T17:47:22Z</time>
      </trkpt>
      <trkpt lat="45.96288" lon="4.64149">
        <ele>288</ele>
        <time>2021-03-15T17:47:42Z</time>
      </trkpt>
      <trkpt lat="45.96297" lon="4.64072">
        <ele>287</ele>
        <time>2021-03-15T17:48:54Z</time>
      </trkpt>
      <trkpt lat="45.96298" lon="4.64047">
        <ele>288</ele>
        <time>2021-03-15T17:49:18Z</time>
      </trkpt>
      <trkpt lat="45.96301" lon="4.64021">
        <ele>289</ele>
        <time>2021-03-15T17:49:42Z</time>
      </trkpt>
      <trkpt lat="45.96306" lon="4.63991">
        <ele>290</ele>
        <time>2021-03-15T17:50:11Z</time>
      </trkpt>
      <trkpt lat="45.96326" lon="4.63909">
        <ele>293</ele>
        <time>2021-03-15T17:51:31Z</time>
      </trkpt>
      <trkpt lat="45.9634" lon="4.63859">
        <ele>295</ele>
        <time>2021-03-15T17:52:21Z</time>
      </trkpt>
      <trkpt lat="45.96373" lon="4.63623">
        <ele>301</ele>
        <time>2021-03-15T17:56:05Z</time>
      </trkpt>
      <trkpt lat="45.96403" lon="4.63468">
        <ele>304</ele>
        <time>2021-03-15T17:58:34Z</time>
      </trkpt>
      <trkpt lat="45.96426" lon="4.63375">
        <ele>305</ele>
        <time>2021-03-15T18:00:05Z</time>
      </trkpt>
      <trkpt lat="45.96452" lon="4.63314">
        <ele>308</ele>
        <time>2021-03-15T18:01:12Z</time>
      </trkpt>
      <trkpt lat="45.9645" lon="4.63259">
        <ele>305</ele>
        <time>2021-03-15T18:02:03Z</time>
      </trkpt>
      <trkpt lat="45.96444" lon="4.63229">
        <ele>303</ele>
        <time>2021-03-15T18:02:32Z</time>
      </trkpt>
      <trkpt lat="45.96429" lon="4.6318">
        <ele>297</ele>
        <time>2021-03-15T18:03:22Z</time>
      </trkpt>
      <trkpt lat="45.9641" lon="4.63088">
        <ele>293</ele>
        <time>2021-03-15T18:04:51Z</time>
      </trkpt>
      <trkpt lat="45.96403" lon="4.63064">
        <ele>294</ele>
        <time>2021-03-15T18:05:15Z</time>
      </trkpt>
      <trkpt lat="45.96394" lon="4.63054">
        <ele>294</ele>
        <time>2021-03-15T18:05:30Z</time>
      </trkpt>
      <trkpt lat="45.96394" lon="4.63041">
        <ele>294</ele>
        <time>2021-03-15T18:05:42Z</time>
      </trkpt>
    </trkseg>
  </trk>
</gpx>